Location: ?????
(31.8092°N, 35.2590°E)
Time: 20:21:40
(UTC+00:00)

Cosmos 1470 - Pass Details

Date: 20 June 2021
Orbit: 520 x 542 km, 82.5° (Epoch: 23 July)

Event Time Altitude Azimuth Distance (km) Brightness Sun altitude
Rises 17:56:59 0° 353° (N) 2,696 7.1 -13.1°
Reaches altitude 10° 17:59:09 10° 353° (N) 1,798 6.1 -13.5°
Maximum altitude 18:03:06 87° 266° (W) 540 2.7 -14.1°
Enters shadow 18:06:12 16° 176° (S) 1,446 4.6 -14.6°
